Regional Weather Roundup
Issued by NWS Newport/Morehead, NC

Current Version | Previous Version | Graphics & Text | Print | Product List | Glossary Off
Versions: 1 2 3 4 5 6 7 8 9 10 11 12 13 14 15 16 17 18 19 20 21 22 23 24 25 26 27 28 29 30 31 32 33 34 35 36 37 38 39 40 41 42 43 44 45 46 47 48 49 50

000
ASUS42 KMHX 231513
RWRMHX
WEATHER ROUNDUP FOR EASTERN NORTH CAROLINA
NATIONAL WEATHER SERVICE NEWPORT/MOREHEAD CITY NC
1000 AM EST FRI FEB 23 2018

NOTE: "FAIR" INDICATES FEW OR NO CLOUDS BELOW 12,000 FEET
WITH NO SIGNIFICANT WEATHER AND/OR OBSTRUCTIONS TO VISIBILITY

NCZ015>017-031-032-045>047-102-103-231600-
NORTH COAST

CITY           SKY/WX    TMP DP  RH WIND       PRES   REMARKS
EDENTON        CLOUDY    53  50  90 N5        30.53S
ELIZABETH CITY CLOUDY    51  51 100 N7        30.52S
KITTY HAWK     CLOUDY   N/A N/A N/A CALM      30.49F
MANTEO         CLOUDY    53  50  90 N6        30.51S

$$

NCZ045>047-081-094-103-104-231600-
CENTRAL COAST

CITY           SKY/WX    TMP DP  RH WIND       PRES   REMARKS
FRISCO         CLOUDY    57  56  96 VRB6      30.49S FOG

$$

NCZ095-097-098-100-101-231600-
SOUTHERN COAST

CITY           SKY/WX    TMP DP  RH WIND       PRES   REMARKS
BEAUFORT       CLOUDY    59  58  96 E5        30.50S FOG
CEDAR ISLAND   NOT AVBL
JACKSONVILLE   NOT AVBL
PINEY ISLAND   NOT AVBL
WILMINGTON     FAIR      74  64  71 VRB5      30.48S


$$

NCZ011>013-027>030-043-044-078>080-089-090>093-098-231600-
COASTAL PLAIN

CITY           SKY/WX    TMP DP  RH WIND       PRES   REMARKS
AHOSKIE        CLOUDY    47  47 100 N3        30.53F
CLINTON        CLOUDY    64  64 100 CALM      30.49F
ELIZABETHTOWN  NOT AVBL
GOLDSBORO      CLOUDY    57  53  86 NE6       30.48F
GREENVILLE     CLOUDY    52  50  93 CALM      30.51F
HAVELOCK       CLOUDY    63  59  87 NE9       30.51S
KENANSVILLE    CLOUDY    61  61 100 NE3       30.50S FOG
KINSTON        CLOUDY    57  54  88 NE6       30.51F
NEW BERN       CLOUDY    58  55  90 VRB3      30.52S
RICHLANDS      CLOUDY    63  62  97 CALM      30.50S
ROCKY MOUNT    CLOUDY    50  48  93 N7        30.52S FOG
WASHINGTON     CLOUDY    53  50  89 CALM      30.52F
WHITEVILLE     CLOUDY    66  65  97 CALM      30.47F

$$

AMZ130-135-150-152-154-156-158-170-250-252-270-ANZ085-086-088-633-658-670-231600-
MARINE OBSERVATIONS

STATION/POSITION TIME  TEMP    WIND        PRES    WAVE   SWELL
                       AIR SEA DIR/SP/G            HT/PER HT/PER
                 (UTC) (F)     (DEG/KT/KT) (MB)    (FT/S) (FT/S)
CHESAPEAKE LIGHT NOT AVBL
64 E VA BEACH    1450   51 50  320/  4/  6 1032.6    6/ 8   7/ 8
DUCK             1436      46  350/ 12/ 13 1032.4
2 E DUCK         1430      48                N/A     5/ 8   2/13
OREGON INLET     1436   51 52  340/  7/ 10 1032.9
13E OREGON INLT  1448      47                N/A     5/ 8   5/ 8
HATTERAS CG      1436   54 60   20/ 10/ 11 1032.5
DIAMOND BUOY     1500   62 74   10/  8/ 10 1032.9
CAPE LOOKOUT     1500           50/ 10/ 11 1033.0
BEAUFORT LAB     1436   57 60   60/  5/  7 1032.9
30 SE NEW RVR IN 1408   66 70   60/ 10/ 14 1032.5
30 SE NEW RVR IN 1500      70                N/A     4/ 8   2/14
27 SE WRIGHTSVLE 1408   69 69  350/  4/  8 1032.2
5 SE WRIGHTSVLE  1408   60 58   50/  2/  4 1031.9
225 S CAPE HAT   1450   72 73  120/ 10/ 12 1032.2    5/ 9   5/ 9
41 SE CHARLESTON 1500   70 68   CALM  /  2 1031.0

$$




USA.gov is the U.S. government's official web portal to all federal, state and local government web resources and services.